This is the latest recevied weather packets stored in our database for station/object N6GPM. If no packets are shown the sender has not sent any weather packets the latest 10 day(s).
| Time | Temp. | Humidity | Pressure | Rain* | Wind** | Luminosity | Snow |
|---|---|---|---|---|---|---|---|
| 1787529483 | 37.22° C | 22% | 1016.1 hPa | 0 mm | - | 416 W/m² | - |
| 1787529183 | 37.22° C | 22% | 1016.1 hPa | 0 mm | - | 437 W/m² | - |
| 1787528878 | 37.22° C | 22% | 1016.3 hPa | 0 mm | - | 458 W/m² | - |
| 1787528574 | 37.78° C | 21% | 1016.2 hPa | 0 mm | - | 476 W/m² | - |
| 1787528274 | 37.78° C | 21% | 1016.3 hPa | 0 mm | - | 498 W/m² | - |
| 1787527971 | 37.78° C | 21% | 1016.3 hPa | 0 mm | - | 520 W/m² | - |
| 1787527667 | 38.33° C | 20% | 1016.3 hPa | 0 mm | - | 541 W/m² | - |
| 1787527362 | 38.33° C | 20% | 1016 hPa | 0 mm | - | 559 W/m² | - |
| 1787527058 | 38.33° C | 20% | 1016.2 hPa | 0 mm | - | 582 W/m² | - |
| 1787526753 | 38.33° C | 20% | 1016.1 hPa | 0 mm | - | 600 W/m² | - |
| 1787526450 | 38.33° C | 20% | 1016.3 hPa | 0 mm | - | 619 W/m² | - |
| 1787526146 | 38.89° C | 19% | 1016.2 hPa | 0 mm | - | 640 W/m² | - |
| 1787525842 | 38.89° C | 19% | 1016.3 hPa | 0 mm | - | 658 W/m² | - |
| 1787525537 | 38.33° C | 19% | 1016.2 hPa | 0 mm | - | 677 W/m² | - |
| 1787525232 | 38.89° C | 19% | 1016.4 hPa | 0 mm | - | 699 W/m² | - |
| 1787524929 | 38.33° C | 20% | 1016.3 hPa | 0 mm | - | 723 W/m² | - |
| 1787524622 | 38.89° C | 20% | 1016.1 hPa | 0 mm | - | 748 W/m² | - |
| 1787524317 | 38.89° C | 19% | 1016.5 hPa | 0 mm | - | 771 W/m² | - |
| 1787523709 | 38.33° C | 20% | 1016.2 hPa | 0 mm | - | 796 W/m² | - |
| 1787523408 | 38.33° C | 19% | 1016.5 hPa | 0 mm | - | 814 W/m² | - |
| 1787523104 | 37.78° C | 20% | 1016.5 hPa | 0 mm | - | 826 W/m² | - |
| 1787522800 | 38.33° C | 20% | 1016.7 hPa | 0 mm | - | 836 W/m² | - |
| 1787522495 | 37.78° C | 20% | 1016.8 hPa | 0 mm | - | 847 W/m² | - |
| 1787522185 | 37.78° C | 20% | 1016.9 hPa | 0 mm | - | 862 W/m² | - |
| 1787521884 | 37.78° C | 20% | 1016.8 hPa | 0 mm | - | 865 W/m² | - |
* Rain latest hour (hover to see other rain measurements)
** Current wind speed in m/s (hover to see current wind gust speed)